Location: Azul
(36.7830°S, 59.8500°W)
Time: 00:53:25
(UTC-03:00)

ISS - Pass Details

Date: 25 June 2017
Orbit: 401 x 408 km, 51.6° (Epoch: 29 June)

Event Time Altitude Azimuth Distance (km) Brightness Sun altitude
Rises 19:42:09 0° 343° (NNW) 2,323 0.4 -21.4°
Reaches altitude 10° 19:44:34 10° 0° (N) 1,470 -0.9 -21.9°
Enters shadow 19:45:00 12° 6° (N) 1,341 -1.1 -22.0°
